N8TWM-13 Weather Reports


time (UTC)temp
C
wind
direction
speed
KPH
gust
KPH
rain 1hr
cm
rain 24hr
cm
rain mn
cm
humidity
%
barometer
mb
20260508135759 12 248 0.0 1.6 0.00 0.00 0.00 67 1013.2
20260508135255 12 265 1.6 1.6 0.00 0.00 0.00 67 1013.0
20260508134750 12 254 8.0 12.9 0.00 0.00 0.00 66 1013.0
20260508134248 12 235 3.2 4.8 0.00 0.00 0.00 65 1013.0
20260508133744 12 219 1.6 3.2 0.00 0.00 0.00 66 1013.2
20260508133242 12 252 4.8 4.8 0.00 0.00 0.00 66 1013.1
20260508132740 11 251 6.4 8.0 0.00 0.00 0.00 66 1013.0
20260508132237 12 229 1.6 1.6 0.00 0.00 0.00 66 1013.1
20260508131732 12 249 4.8 8.0 0.00 0.00 0.00 67 1013.4
20260508131229 11 267 6.4 9.7 0.00 0.00 0.00 66 1013.1
20260508130726 11 250 0.0 1.6 0.00 0.00 0.00 66 1013.3
20260508130223 11 243 4.8 8.0 0.00 0.00 0.00 65 1013.1
20260508125718 11 250 0.0 1.6 0.00 0.00 0.00 66 1013.2
20260508125215 11 254 1.6 3.2 0.00 0.00 0.00 66 1013.2
20260508124714 12 345 8.0 9.7 0.00 0.00 0.00 64 1013.1
20260508124210 11 271 4.8 9.7 0.00 0.00 0.00 65 1013.4
20260508123709 11 254 4.8 8.0 0.00 0.00 0.00 66 1013.2
20260508123206 11 261 8.0 14.5 0.00 0.00 0.00 66 1013.0
20260508122702 11 232 1.6 1.6 0.00 0.00 0.00 68 1012.9
20260508122159 10 234 9.7 11.3 0.00 0.00 0.00 67 1012.9
20260508121657 10 261 3.2 3.2 0.00 0.00 0.00 68 1013.1
20260508121155 10 291 4.8 8.0 0.00 0.00 0.00 67 1013.1
20260508120652 10 238 8.0 12.9 0.00 0.00 0.00 68 1013.2
20260508120150 10 254 9.7 12.9 0.00 0.00 0.00 66 1013.0
20260508115648 10 228 1.6 3.2 0.00 0.00 0.00 68 1012.7
20260508115144 10 215 4.8 4.8 0.00 0.00 0.00 67 1012.7
20260508114641 10 217 1.6 3.2 0.00 0.00 0.00 69 1012.7
20260508114138 10 263 4.8 4.8 0.00 0.00 0.00 69 1012.8
20260508113635 10 231 3.2 3.2 0.00 0.00 0.00 69 1012.8
20260508113133 10 248 1.6 3.2 0.00 0.00 0.00 70 1012.7
20260508112629 10 241 1.6 1.6 0.00 0.00 0.00 71 1012.8
20260508112126 9 227 0.0 1.6 0.00 0.00 0.00 71 1012.9
20260508111622 8 231 3.2 4.8 0.00 0.00 0.00 72 1012.7
20260508111120 8 257 6.4 8.0 0.00 0.00 0.00 74 1012.9
20260508110618 8 241 3.2 3.2 0.00 0.00 0.00 75 1012.8
20260508110113 7 233 0.0 1.6 0.00 0.00 0.00 77 1012.8
20260508105608 7 252 0.0 1.6 0.00 0.00 0.00 78 1012.9
20260508105106 7 230 0.0 0.0 0.00 0.00 0.00 78 1012.7
20260508104603 7 245 0.0 0.0 0.00 0.00 0.00 77 1012.8
20260508104100 7 233 0.0 0.0 0.00 0.00 0.00 77 1012.6
20260508103557 7 237 0.0 0.0 0.00 0.00 0.00 77 1012.5
20260508103054 7 235 0.0 0.0 0.00 0.00 0.00 77 1012.6
20260508102551 7 209 1.6 1.6 0.00 0.00 0.00 77 1012.4
20260508102049 7 236 0.0 0.0 0.00 0.00 0.00 77 1012.5
20260508101546 7 236 0.0 0.0 0.00 0.00 0.00 77 1012.6
20260508101043 7 234 0.0 0.0 0.00 0.00 0.00 76 1012.5
20260508100542 7 205 0.0 1.6 0.00 0.00 0.00 76 1012.7
20260508100038 7 249 0.0 0.0 0.00 0.00 0.00 76 1012.7
20260508095535 7 235 1.6 3.2 0.00 0.00 0.00 77 1012.5
20260508095032 7 234 0.0 0.0 0.00 0.00 0.00 78 1012.5
20260508094529 7 228 0.0 0.0 0.00 0.00 0.00 78 1012.6
20260508094026 7 224 4.8 4.8 0.00 0.00 0.00 80 1012.7
20260508093523 7 241 0.0 0.0 0.00 0.00 0.00 82 1012.6
20260508093021 7 235 0.0 0.0 0.00 0.00 0.00 83 1012.7
20260508092518 7 232 0.0 0.0 0.00 0.00 0.00 83 1012.5
20260508092017 7 228 0.0 0.0 0.00 0.00 0.00 84 1012.7
20260508091513 7 227 0.0 0.0 0.00 0.00 0.00 84 1012.7
20260508091010 7 226 0.0 0.0 0.00 0.00 0.00 85 1012.6
20260508090508 7 229 0.0 0.0 0.00 0.00 0.00 86 1013.0
20260508090005 7 237 0.0 0.0 0.00 0.00 0.00 85 1012.8
20260508085501 7 237 0.0 0.0 0.00 0.00 0.00 85 1012.9
20260508084958 7 236 0.0 0.0 0.00 0.00 0.00 83 1013.0
20260508084455 7 236 0.0 0.0 0.00 0.00 0.00 82 1013.0
20260508083953 7 239 0.0 0.0 0.00 0.00 0.00 82 1013.2
20260508083449 7 266 0.0 0.0 0.00 0.00 0.00 82 1013.3
20260508082944 7 3 6.4 8.0 0.00 0.00 0.00 83 1013.2
20260508082442 7 247 0.0 0.0 0.00 0.00 0.00 83 1012.9
20260508081939 7 247 0.0 0.0 0.00 0.00 0.00 83 1012.8
20260508081436 7 247 0.0 0.0 0.00 0.00 0.00 82 1013.1
20260508080932 8 247 0.0 0.0 0.00 0.00 0.00 82 1013.0
20260508080431 8 247 0.0 0.0 0.00 0.00 0.00 81 1013.1
20260508075927 8 246 0.0 0.0 0.00 0.00 0.00 81 1013.0
20260508075424 8 251 0.0 0.0 0.00 0.00 0.00 81 1012.9
20260508074922 8 237 0.0 0.0 0.00 0.00 0.00 81 1013.2
20260508074419 8 258 1.6 1.6 0.00 0.00 0.00 80 1013.3
20260508073916 8 251 1.6 4.8 0.00 0.00 0.00 80 1013.3
20260508073414 8 243 1.6 3.2 0.00 0.00 0.00 79 1013.2
20260508072910 8 246 0.0 0.0 0.00 0.00 0.00 80 1013.3
20260508072406 8 263 1.6 3.2 0.00 0.00 0.00 79 1013.0
20260508071904 8 232 3.2 4.8 0.00 0.00 0.00 79 1013.3
20260508071402 8 242 6.4 9.7 0.00 0.00 0.00 79 1013.2
20260508070859 8 274 3.2 4.8 0.00 0.00 0.00 79 1013.5
20260508070357 7 237 4.8 8.0 0.00 0.00 0.00 79 1013.5
20260508065855 7 209 9.7 11.3 0.00 0.00 0.00 80 1013.3
20260508065353 7 229 1.6 1.6 0.00 0.00 0.00 80 1013.5
20260508064851 7 235 3.2 3.2 0.00 0.00 0.00 80 1013.5
20260508064347 7 242 0.0 0.0 0.00 0.00 0.00 80 1013.5
20260508063846 7 226 0.0 0.0 0.00 0.00 0.00 80 1013.7
20260508063343 8 229 0.0 0.0 0.00 0.00 0.00 80 1013.7
20260508062840 8 241 0.0 0.0 0.00 0.00 0.00 79 1013.5
20260508062337 8 222 3.2 4.8 0.00 0.00 0.00 79 1013.7
20260508061834 8 251 0.0 0.0 0.00 0.00 0.00 79 1013.8
20260508061332 8 254 4.8 4.8 0.00 0.00 0.00 77 1014.0
20260508060828 8 230 4.8 9.7 0.00 0.00 0.00 76 1013.8
20260508060326 8 226 3.2 3.2 0.00 0.00 0.00 76 1014.1
20260508055820 8 257 0.0 1.6 0.00 0.00 0.00 76 1014.2
20260508055319 8 249 0.0 0.0 0.00 0.00 0.00 75 1014.2
20260508054815 8 230 0.0 0.0 0.00 0.00 0.00 78 1014.2
20260508054313 8 258 0.0 0.0 0.00 0.00 0.00 76 1014.2
20260508053809 8 258 0.0 0.0 0.00 0.00 0.00 74 1013.7
20260508053307 8 258 0.0 0.0 0.00 0.00 0.00 73 1013.6
20260508052804 8 258 0.0 0.0 0.00 0.00 0.00 72 1013.7
20260508052301 8 258 0.0 0.0 0.00 0.00 0.00 71 1013.8
20260508051757 8 259 0.0 0.0 0.00 0.00 0.00 70 1014.1
20260508051252 8 257 0.0 0.0 0.00 0.00 0.00 70 1013.8
20260508050749 8 257 0.0 0.0 0.00 0.00 0.00 70 1013.6
20260508050246 8 257 0.0 0.0 0.00 0.00 0.00 71 1013.7
20260508045742 8 257 0.0 0.0 0.00 0.00 0.00 71 1013.4
20260508045240 8 257 0.0 0.0 0.00 0.00 0.00 69 1013.6
20260508044737 8 257 0.0 0.0 0.00 0.00 0.00 69 1013.7
20260508044234 8 257 0.0 0.0 0.00 0.00 0.00 69 1013.7
20260508043730 8 257 0.0 0.0 0.00 0.00 0.00 69 1013.7
20260508043227 8 257 0.0 0.0 0.00 0.00 0.00 69 1013.4
20260508042724 8 257 0.0 0.0 0.00 0.00 0.00 69 1013.6
20260508042221 8 257 0.0 0.0 0.00 0.00 0.00 70 1013.5
20260508041718 8 257 0.0 0.0 0.00 0.00 0.00 71 1013.4
20260508041215 8 257 0.0 0.0 0.00 0.00 0.00 69 1013.6
20260508040711 8 257 0.0 0.0 0.00 0.00 0.00 69 1013.8
20260508040208 8 257 0.0 0.0 0.00 0.00 0.00 69 1013.7
20260508035706 8 257 0.0 1.6 0.00 0.00 0.00 67 1013.7
20260508035203 8 257 0.0 0.0 0.00 0.00 0.00 66 1013.6
20260508034659 8 257 0.0 0.0 0.00 0.00 0.00 66 1013.6
20260508034156 8 257 0.0 0.0 0.00 0.00 0.00 65 1014.0
20260508033654 8 257 0.0 0.0 0.00 0.00 0.00 65 1014.0
20260508033152 8 257 0.0 0.0 0.00 0.00 0.00 64 1013.8
20260508032649 8 257 0.0 0.0 0.00 0.00 0.00 64 1014.0
20260508032146 9 257 0.0 0.0 0.00 0.00 0.00 64 1013.8
20260508031643 9 257 0.0 0.0 0.00 0.00 0.00 64 1013.6
20260508031139 10 257 0.0 0.0 0.00 0.00 0.00 64 1014.1
20260508030636 10 248 0.0 0.0 0.00 0.00 0.00 62 1014.0
20260508030133 10 248 1.6 1.6 0.00 0.00 0.00 60 1014.2
20260508025629 10 255 0.0 0.0 0.00 0.00 0.00 60 1014.2
20260508025127 10 255 0.0 0.0 0.00 0.00 0.00 60 1014.1
20260508024622 10 255 0.0 1.6 0.00 0.00 0.00 59 1014.2
20260508024120 10 245 0.0 0.0 0.00 0.00 0.00 59 1014.2
20260508023616 10 251 1.6 3.2 0.00 0.00 0.00 58 1014.2
20260508023114 10 241 0.0 0.0 0.00 0.00 0.00 59 1014.2
20260508022609 10 241 0.0 0.0 0.00 0.00 0.00 59 1014.2
20260508022107 10 247 0.0 1.6 0.00 0.00 0.00 58 1014.2
20260508021602 10 255 1.6 1.6 0.00 0.00 0.00 58 1014.3
20260508021058 10 253 1.6 3.2 0.00 0.00 0.00 57 1014.0
20260508020556 10 248 4.8 4.8 0.00 0.00 0.00 56 1013.7
20260508020054 10 254 4.8 4.8 0.00 0.00 0.00 56 1013.6
20260508015551 10 256 4.8 8.0 0.00 0.00 0.00 56 1014.1
20260508015048 10 252 1.6 3.2 0.00 0.00 0.00 55 1014.0
20260508014544 10 269 4.8 9.7 0.00 0.00 0.00 55 1014.0
20260508014040 10 241 3.2 3.2 0.00 0.00 0.00 56 1014.0
20260508013536 10 262 4.8 4.8 0.00 0.00 0.00 56 1013.7
20260508013034 10 247 1.6 1.6 0.00 0.00 0.00 59 1013.5
20260508012531 10 257 0.0 0.0 0.00 0.00 0.00 58 1013.4
20260508012028 10 257 0.0 0.0 0.00 0.00 0.00 59 1013.2
20260508011527 10 257 0.0 0.0 0.00 0.00 0.00 59 1013.4
20260508011023 10 257 0.0 0.0 0.00 0.00 0.00 59 1013.3
20260508010520 9 258 0.0 0.0 0.00 0.00 0.00 58 1013.1
20260508010018 9 257 0.0 0.0 0.00 0.00 0.00 59 1013.3
20260508005514 10 257 0.0 0.0 0.00 0.00 0.00 58 1013.0
20260508005011 10 257 0.0 0.0 0.00 0.00 0.00 58 1013.2
20260508004507 10 257 0.0 0.0 0.00 0.00 0.00 56 1013.1
20260508004004 10 257 0.0 1.6 0.00 0.00 0.00 56 1013.2
20260508003500 10 258 0.0 0.0 0.00 0.00 0.00 57 1013.2
20260508002958 10 258 0.0 0.0 0.00 0.00 0.00 54 1013.0
20260508002454 10 258 0.0 0.0 0.00 0.00 0.00 52 1013.1
20260508001950 11 258 0.0 0.0 0.00 0.00 0.00 51 1013.1
20260508001446 11 259 1.6 1.6 0.00 0.00 0.00 50 1013.0
20260508000943 11 258 3.2 3.2 0.00 0.00 0.00 50 1013.1
20260508000439 11 251 4.8 4.8 0.00 0.00 0.00 50 1013.1
20260507235936 11 236 0.0 1.6 0.00 0.00 0.00 49 1012.8
20260507235433 11 257 3.2 3.2 0.00 0.00 0.00 48 1012.8
20260507234931 11 252 0.0 3.2 0.00 0.00 0.00 48 1012.8
20260507234427 11 256 3.2 3.2 0.00 0.00 0.00 47 1012.8
20260507233923 12 254 1.6 3.2 0.00 0.00 0.00 48 1012.8
20260507233420 12 248 11.3 12.9 0.00 0.00 0.00 46 1012.7
20260507232919 12 247 1.6 1.6 0.00 0.00 0.00 47 1012.7
20260507232415 12 293 4.8 8.0 0.00 0.00 0.00 46 1012.7
20260507231912 12 253 3.2 3.2 0.00 0.00 0.00 47 1012.7
20260507231409 12 263 4.8 4.8 0.00 0.00 0.00 45 1012.8
20260507230905 13 240 3.2 3.2 0.00 0.00 0.00 45 1012.8
20260507230403 13 228 1.6 1.6 0.00 0.00 0.00 44 1012.7
20260507225903 13 255 1.6 3.2 0.00 0.00 0.00 44 1012.8
20260507225359 13 260 9.7 12.9 0.00 0.00 0.00 44 1012.7
20260507224855 13 266 6.4 11.3 0.00 0.00 0.00 44 1012.8
20260507224352 13 279 3.2 3.2 0.00 0.00 0.00 44 1012.8
20260507223848 13 242 1.6 1.6 0.00 0.00 0.00 45 1012.8
20260507223344 13 314 6.4 8.0 0.00 0.00 0.00 44 1013.0
20260507222841 13 286 9.7 11.3 0.00 0.00 0.00 42 1012.8
20260507222337 13 268 1.6 1.6 0.00 0.00 0.00 44 1012.9
20260507221835 13 299 6.4 8.0 0.00 0.00 0.00 43 1012.7
20260507221331 13 224 14.5 20.9 0.00 0.00 0.00 43 1013.0
20260507220827 13 272 4.8 8.0 0.00 0.00 0.00 44 1012.8
20260507220326 12 326 9.7 14.5 0.00 0.00 0.00 44 1012.8
20260507215822 13 268 4.8 4.8 0.00 0.00 0.00 44 1012.8
20260507215319 13 265 6.4 9.7 0.00 0.00 0.00 42 1012.6
20260507214816 13 263 3.2 8.0 0.00 0.00 0.00 45 1012.7
20260507214314 13 303 3.2 8.0 0.00 0.00 0.00 43 1012.4
20260507213808 13 329 9.7 12.9 0.00 0.00 0.00 43 1012.6
20260507213306 13 198 0.0 1.6 0.00 0.00 0.00 44 1012.7
20260507212802 13 263 0.0 0.0 0.00 0.00 0.00 46 1012.4
20260507212258 13 257 9.7 12.9 0.00 0.00 0.00 44 1012.6
20260507211755 13 232 3.2 8.0 0.00 0.00 0.00 45 1012.7
20260507211251 13 276 4.8 8.0 0.00 0.00 0.00 43 1012.6
20260507210748 13 298 4.8 8.0 0.00 0.00 0.00 44 1012.6
20260507210245 13 263 3.2 4.8 0.00 0.00 0.00 44 1012.4
20260507205742 13 268 4.8 8.0 0.00 0.00 0.00 44 1012.4
20260507205239 13 278 1.6 4.8 0.00 0.00 0.00 46 1012.7
20260507204735 13 276 6.4 9.7 0.00 0.00 0.00 43 1012.4
20260507204233 13 327 6.4 8.0 0.00 0.00 0.00 44 1012.5
20260507203730 13 267 4.8 8.0 0.00 0.00 0.00 45 1012.4
20260507203227 12 274 4.8 4.8 0.00 0.00 0.00 46 1012.4
20260507202723 12 282 3.2 3.2 0.00 0.00 0.00 45 1012.6
20260507202214 13 246 11.3 12.9 0.00 0.00 0.00 45 1012.6
20260507201709 13 277 6.4 8.0 0.00 0.00 0.00 47 1012.5
20260507201206 13 297 4.8 12.9 0.00 0.00 0.00 47 1012.3
20260507200703 12 230 8.0 9.7 0.00 0.00 0.00 48 1012.7
20260507200159 13 253 1.6 1.6 0.00 0.00 0.00 49 1012.6
20260507195655 13 291 4.8 4.8 0.00 0.00 0.00 47 1012.6
20260507195152 13 263 6.4 9.7 0.00 0.00 0.00 48 1012.9
20260507194649 13 270 4.8 8.0 0.00 0.00 0.00 49 1012.9
20260507194145 13 269 4.8 4.8 0.00 0.00 0.00 49 1012.6
20260507193642 13 221 4.8 4.8 0.00 0.00 0.00 50 1012.6
20260507193139 12 272 4.8 8.0 0.00 0.00 0.00 52 1012.8
20260507192635 12 271 4.8 4.8 0.00 0.00 0.00 53 1013.0
20260507192132 12 302 8.0 11.3 0.00 0.00 0.00 50 1013.0
20260507191627 12 238 8.0 9.7 0.00 0.00 0.00 52 1012.9
20260507191125 11 272 4.8 4.8 0.00 0.00 0.00 52 1013.0
20260507190622 12 261 6.4 8.0 0.00 0.00 0.00 52 1012.9
20260507190121 12 278 4.8 4.8 0.00 0.00 0.00 53 1013.0
20260507185619 12 258 8.0 11.3 0.00 0.00 0.00 51 1012.9
20260507185115 11 263 1.6 4.8 0.00 0.00 0.00 57 1013.0
20260507184613 12 270 3.2 3.2 0.00 0.00 0.00 55 1012.9
20260507184111 12 236 3.2 4.8 0.00 0.00 0.00 54 1013.1
20260507183607 12 248 4.8 8.0 0.00 0.00 0.00 57 1013.3
20260507183104 11 271 4.8 9.7 0.00 0.00 0.00 56 1013.3
20260507182600 11 273 12.9 20.9 0.00 0.00 0.00 54 1013.0
20260507182056 11 240 4.8 4.8 0.00 0.00 0.00 55 1013.0
20260507181553 12 306 8.0 12.9 0.00 0.00 0.00 53 1012.9
20260507181049 12 232 4.8 4.8 0.00 0.00 0.00 53 1012.8
20260507180546 12 154 3.2 8.0 0.00 0.00 0.00 56 1013.1
20260507180043 12 248 11.3 14.5 0.00 0.00 0.00 54 1013.2
20260507175539 12 279 4.8 8.0 0.00 0.00 0.00 53 1013.2
20260507175037 12 268 9.7 14.5 0.00 0.00 0.00 50 1013.3
20260507174533 12 250 8.0 9.7 0.00 0.00 0.00 50 1013.2
20260507174032 12 255 4.8 8.0 0.00 0.00 0.00 49 1013.4
20260507173528 12 247 6.4 9.7 0.00 0.00 0.00 51 1013.2
20260507173026 12 251 3.2 4.8 0.00 0.00 0.00 51 1013.0
20260507172521 12 296 3.2 3.2 0.00 0.00 0.00 54 1013.3
20260507172018 12 275 12.9 16.1 0.00 0.00 0.00 52 1013.3
20260507171514 12 206 1.6 3.2 0.00 0.00 0.00 55 1013.4
20260507171011 11 243 8.0 16.1 0.00 0.00 0.00 52 1013.2
20260507170508 11 274 9.7 16.1 0.00 0.00 0.00 53 1013.6
20260507170005 12 232 8.0 11.3 0.00 0.00 0.00 52 1013.3
20260507165500 12 267 4.8 4.8 0.00 0.00 0.00 52 1013.5
20260507164957 12 275 19.3 24.1 0.00 0.00 0.00 52 1013.5
20260507164453 12 233 4.8 8.0 0.00 0.00 0.00 50 1013.5
20260507163950 12 234 6.4 11.3 0.00 0.00 0.00 51 1013.3
20260507163448 12 259 4.8 8.0 0.00 0.00 0.00 51 1013.2
20260507162944 12 298 4.8 4.8 0.00 0.00 0.00 52 1013.5
20260507162440 12 258 3.2 4.8 0.00 0.00 0.00 54 1013.7
20260507161937 12 245 4.8 8.0 0.00 0.00 0.00 52 1013.4
20260507161433 12 247 4.8 8.0 0.00 0.00 0.00 51 1013.3
20260507160930 12 272 1.6 1.6 0.00 0.00 0.00 52 1013.6
20260507160426 12 292 6.4 9.7 0.00 0.00 0.00 52 1013.4
20260507155922 12 292 3.2 4.8 0.00 0.00 0.00 51 1013.4
20260507155418 12 279 4.8 9.7 0.00 0.00 0.00 52 1013.4
20260507154915 12 224 3.2 4.8 0.00 0.00 0.00 53 1013.3
20260507154412 12 291 4.8 9.7 0.00 0.00 0.00 51 1013.6
20260507153910 11 250 1.6 3.2 0.00 0.00 0.00 51 1013.5
20260507153406 12 254 6.4 9.7 0.00 0.00 0.00 48 1013.4
20260507152902 12 220 4.8 8.0 0.00 0.00 0.00 55 1013.2
20260507152359 11 309 3.2 4.8 0.00 0.00 0.00 55 1013.5
20260507151855 11 250 1.6 1.6 0.00 0.00 0.00 58 1013.5
20260507151351 11 292 11.3 16.1 0.00 0.00 0.00 53 1013.6
20260507150848 11 266 4.8 4.8 0.00 0.00 0.00 57 1013.5
20260507150345 11 261 1.6 3.2 0.00 0.00 0.00 54 1013.4
20260507145841 11 247 3.2 3.2 0.00 0.00 0.00 57 1013.2
20260507145339 11 228 11.3 14.5 0.00 0.00 0.00 57 1013.3
20260507144834 11 274 6.4 9.7 0.00 0.00 0.00 58 1013.6
20260507144332 11 312 6.4 9.7 0.00 0.00 0.00 58 1013.6
20260507143828 10 256 1.6 1.6 0.00 0.00 0.00 61 1013.6
20260507143326 11 248 3.2 3.2 0.00 0.00 0.00 61 1013.5
20260507142821 10 254 1.6 3.2 0.00 0.00 0.00 62 1013.6
20260507142318 10 227 0.0 1.6 0.00 0.00 0.00 63 1013.5
20260507141815 10 249 0.0 3.2 0.00 0.00 0.00 63 1013.5
20260507141312 10 251 4.8 4.8 0.00 0.00 0.00 64 1013.4
20260507140808 10 269 3.2 3.2 0.00 0.00 0.00 66 1013.7
20260507140305 10 258 1.6 1.6 0.00 0.00 0.00 66 1013.8